Location: ?????????
(41.2393°N, 22.9479°E)
Time: 23:35:53
(UTC+00:00)

RESURS DK-1 - Pass Details

Date: 17 November 2025
Orbit: 524 x 535 km, 69.9° (Epoch: 09 December)

Event Time Altitude Azimuth Distance (km) Brightness Sun altitude
Rises 17:06:50 0° 324° (NW) 2,693 6.2 -22.4°
Reaches altitude 10° 17:09:12 10° 314° (NW) 1,797 5.4 -22.8°
Maximum altitude 17:12:43 30° 252° (WSW) 981 4.2 -23.5°
Drops below altitude 10° 17:16:12 10° 191° (S) 1,782 5.1 -24.1°
Sets 17:18:32 0° 180° (S) 2,665 5.9 -24.6°
